Regional Weather Roundup
Issued by NWS Bismarck, ND

Home | Current Version | Previous Version | Graphics & Text | Print | Product List | Glossary On
Versions: 1 2 3 4 5 6 7 8 9 10 11 12 13 14 15 16 17 18 19 20 21 22 23 24 25 26 27 28 29 30 31 32 33 34 35 36 37 38 39 40 41 42 43 44 45 46 47 48 49 50
000
ASUS43 KBIS 232120
RWRBIS

NWR BROADCAST TEXT
NATIONAL WEATHER SERVICE BISMARCK ND
300 PM CST SUN NOV 23 2014

NOTE: "FAIR" INDICATES FEW OR NO CLOUDS BELOW 12,000 FEET WITH NO
SIGNIFICANT WEATHER AND/OR OBSTRUCTIONS TO VISIBILITY.


CITY           SKY/WX    TMP DP  RH WIND       PRES   REMARKS
WILLISTON      CLOUDY    20  12  71 NW16      29.76R WCI   6
MINOT          FLURRIES  17   8  67 NW23G31   29.63R WCI  -1
MINOT AFB      MIX PCPN  17  10  72 NW23G29   29.63R WCI  -1
BISMARCK       CLOUDY    24  15  68 NW20G30   29.62S WCI  10
DICKINSON      CLOUDY    24  15  68 NW26G41   29.64R WCI   8
GARRISON         N/A     19  10  68 NW32G39   29.61R WCI  -1
HETTINGER ARPT CLOUDY    27  19  72 NW31G43   29.66R WCI  10
JAMESTOWN      CLOUDY    25  19  78 NW28G36   29.48S WCI   9
BEACH          LGT RAIN  23  19  86 NW25G41   29.73R WCI   7
CARRINGTON     LGT SNOW  19  19 100 NW33G41   29.51R WCI   0
CROSBY         CLOUDY    18  10  73 NW21G31   29.73S WCI   1
HARVEY         LGT SNOW  18  16  93 NW21G32   29.57R WCI   1
HAZEN          FLURRIES  21  12  68 NW20G29   29.67R WCI   6
LINTON         MIX PCPN  25  18  74 NW30G40   29.59S WCI   8
MANDAN         CLOUDY    23  14  68 NW18G33   29.62S WCI   9
OAKES            N/A     28  23  80 W28G35    29.51R WCI  13
RUGBY          LGT SNOW  16  10  79 NW22G30   29.57R WCI  -2
STANLEY        FLURRIES  16  12  86 NW24G32   29.64S WCI  -3
TIOGA          LGT SNOW  16  14  93 NW23G32   29.71R WCI  -2
$$

CITY           SKY/WX    TMP DP  RH WIND       PRES   REMARKS
GRAND FORKS    CLOUDY    29  26  89 N17       29.46R WCI  17
GRAND FORKS AF FRZ DRZL  28  28 100 N15       29.46R WCI  17
DEVILS LAKE    CLOUDY    21  10  63 N24       29.49R WCI   4
FARGO          CLOUDY    36  22  56 W12       29.46S
CANDO          MOCLDY    19  18  93 N15G24    29.53R FOG     WCI   5
CAVALIER       CLOUDY    21  19  93 NW17G24   29.50R FOG     WCI   7
GRAFTON        CLOUDY    23  23 100 N20G25    29.48R WCI   8
GWINNER        CLOUDY    34  27  75 NW23G29   29.50R
LANGDON        CLOUDY    18  14  86 NW21G30   29.47R FOG     WCI   1
ROLLA          LGT SNOW  14  10  85 NW24G31   29.54R WCI  -5
WALHALLA       LGT SNOW  19  19 100 NW21G31   29.51R WCI   3
$$

CITY           SKY/WX    TMP DP  RH WIND       PRES   REMARKS
ABERDEEN       CLOUDY    33  23  66 NW23G35   29.54R
MOBRIDGE       CLOUDY    30  20  66 NW24G36   29.59R WCI  16
BUFFALO          N/A     34  20  56 NW35G48   29.61R WCI  19
RAPID CITY     PTSUNNY   40  21  46 NW40G51   29.69S
GLASGOW        FLURRIES  27  19  72 NW17      29.81F WCI  14
SIDNEY         CLOUDY    27  16  63 W22G31    29.79R WCI  12
WOLF POINT     CLOUDY    29  16  58 NW18      29.83S WCI  16
GLENDIVE       PTSUNNY   25  16  68 W21G31    29.79S WCI  10
MILES CITY     PTSUNNY   39  23  52 NW26G36   29.80S
BAKER          CLOUDY    27  18  69 NW22G32   29.75R WCI  13
$$

CITY           SKY/WX    TMP DP  RH WIND       PRES   REMARKS
BILLINGS       MOSUNNY   43  14  31 NW25G37   29.87F
GREAT FALLS    MOSUNNY   41  16  36 W25G36    29.85F
REGINA         PTSUNNY   14  10  85 NW17      29.79R WCI  -3
ESTEVAN        FLURRIES  16   9  73 NW28G33   29.71R WCI  -4
$$




USA.gov is the U.S. government's official web portal to all federal, state and local government web resources and services.